TimeEDT,TemperatureF,Dew PointF,Humidity,Sea Level PressureIn,VisibilityMPH,Wind Direction,Wind SpeedMPH,Gust SpeedMPH,PrecipitationIn,Events,Conditions,WindDirDegrees,DateUTC
12:15 AM,51.8,50.0,94,30.09,2.0,Calm,Calm,-,N/A,,Clear,0,2013-09-30 04:15:00
12:35 AM,51.8,50.0,94,30.09,10.0,Calm,Calm,-,N/A,,Clear,0,2013-09-30 04:35:00
12:55 AM,51.8,51.8,100,30.08,5.0,Calm,Calm,-,N/A,,Clear,0,2013-09-30 04:55:00
1:15 AM,50.0,48.2,94,30.08,10.0,Calm,Calm,-,N/A,,Clear,0,2013-09-30 05:15:00
1:35 AM,50.0,48.2,94,30.08,10.0,Calm,Calm,-,N/A,,Clear,0,2013-09-30 05:35:00
1:55 AM,48.2,48.2,100,30.09,10.0,Calm,Calm,-,N/A,,Clear,0,2013-09-30 05:55:00
2:15 AM,48.2,48.2,100,30.08,10.0,Calm,Calm,-,N/A,,Clear,0,2013-09-30 06:15:00
2:35 AM,48.2,46.4,93,30.08,2.0,Calm,Calm,-,N/A,,Clear,0,2013-09-30 06:35:00
2:55 AM,46.4,46.4,100,30.08,2.5,Calm,Calm,-,N/A,,Clear,0,2013-09-30 06:55:00
3:15 AM,48.2,46.4,93,30.08,0.5,Calm,Calm,-,N/A,,Overcast,0,2013-09-30 07:15:00
3:35 AM,48.2,46.4,93,30.08,9.0,Calm,Calm,-,N/A,,Overcast,0,2013-09-30 07:35:00
3:55 AM,48.2,48.2,100,30.08,1.5,Calm,Calm,-,N/A,,Mostly Cloudy,0,2013-09-30 07:55:00
4:15 AM,46.4,46.4,100,30.08,0.5,Calm,Calm,-,N/A,,Mostly Cloudy,0,2013-09-30 08:15:00
4:35 AM,48.2,46.4,93,30.08,10.0,Calm,Calm,-,N/A,,Partly Cloudy,0,2013-09-30 08:35:00
4:55 AM,46.4,46.4,100,30.08,10.0,Calm,Calm,-,N/A,,Clear,0,2013-09-30 08:55:00
5:15 AM,46.4,46.4,100,30.08,10.0,Calm,Calm,-,N/A,,Clear,0,2013-09-30 09:15:00
5:35 AM,46.4,46.4,100,30.08,10.0,Calm,Calm,-,N/A,,Clear,0,2013-09-30 09:35:00
5:55 AM,46.4,46.4,100,30.09,1.8,Calm,Calm,-,N/A,,Scattered Clouds,0,2013-09-30 09:55:00
6:15 AM,46.4,46.4,100,30.09,10.0,Calm,Calm,-,N/A,,Clear,0,2013-09-30 10:15:00
7:15 AM,46.4,46.4,100,30.10,0.5,SSE,3.5,-,N/A,,Scattered Clouds,160,2013-09-30 11:15:00
7:50 AM,46.4,46.4,100,30.10,6.0,Calm,Calm,-,N/A,,Scattered Clouds,0,2013-09-30 11:50:00
8:45 AM,51.8,51.8,100,30.12,10.0,Calm,Calm,-,N/A,,Clear,0,2013-09-30 12:45:00
9:45 AM,59.0,55.4,88,30.11,10.0,Calm,Calm,-,N/A,,Clear,0,2013-09-30 13:45:00
10:45 AM,66.2,53.6,64,30.10,10.0,South,5.8,-,N/A,,Clear,180,2013-09-30 14:45:00
11:50 AM,69.8,55.4,60,30.09,10.0,SSW,4.6,-,N/A,,Clear,200,2013-09-30 15:50:00
12:55 PM,71.6,53.6,53,30.06,10.0,SE,3.5,-,N/A,,Mostly Cloudy,140,2013-09-30 16:55:00
1:45 PM,73.4,53.6,50,30.04,10.0,Calm,Calm,-,N/A,,Mostly Cloudy,0,2013-09-30 17:45:00
3:50 PM,73.4,53.6,50,30.00,10.0,Calm,Calm,-,N/A,,Scattered Clouds,0,2013-09-30 19:50:00
4:45 PM,75.2,53.6,47,29.99,10.0,Calm,Calm,-,N/A,,Mostly Cloudy,0,2013-09-30 20:45:00
6:15 PM,71.6,55.4,57,30.00,10.0,SE,5.8,-,N/A,,Clear,130,2013-09-30 22:15:00
6:35 PM,69.8,57.2,64,30.01,10.0,SSE,3.5,-,N/A,,Clear,150,2013-09-30 22:35:00
6:55 PM,68.0,57.2,68,30.01,10.0,SSE,3.5,-,N/A,,Clear,160,2013-09-30 22:55:00
7:15 PM,64.4,57.2,77,30.02,10.0,SSE,5.8,-,N/A,,Clear,150,2013-09-30 23:15:00
7:35 PM,66.2,57.2,73,30.02,10.0,SSE,3.5,-,N/A,,Clear,150,2013-09-30 23:35:00
7:55 PM,62.6,57.2,82,30.03,10.0,Calm,Calm,-,N/A,,Clear,0,2013-09-30 23:55:00
8:15 PM,62.6,57.2,82,30.04,10.0,Calm,Calm,-,N/A,,Clear,0,2013-10-01 00:15:00
8:35 PM,60.8,57.2,88,30.04,10.0,Calm,Calm,-,N/A,,Clear,0,2013-10-01 00:35:00
8:55 PM,59.0,57.2,94,30.04,10.0,Calm,Calm,-,N/A,,Clear,0,2013-10-01 00:55:00
9:15 PM,59.0,57.2,94,30.05,10.0,Calm,Calm,-,N/A,,Clear,0,2013-10-01 01:15:00
9:35 PM,57.2,57.2,100,30.05,10.0,Calm,Calm,-,N/A,,Partly Cloudy,0,2013-10-01 01:35:00
9:55 PM,55.4,55.4,100,30.05,10.0,Calm,Calm,-,N/A,,Clear,0,2013-10-01 01:55:00
10:15 PM,57.2,57.2,100,30.06,10.0,Calm,Calm,-,N/A,,Mostly Cloudy,0,2013-10-01 02:15:00
10:35 PM,57.2,55.4,94,30.06,10.0,Calm,Calm,-,N/A,,Overcast,0,2013-10-01 02:35:00
10:55 PM,55.4,55.4,100,30.06,10.0,Calm,Calm,-,N/A,,Mostly Cloudy,0,2013-10-01 02:55:00
11:15 PM,55.4,55.4,100,30.05,10.0,Calm,Calm,-,N/A,,Clear,0,2013-10-01 03:15:00
11:35 PM,55.4,53.6,94,30.05,10.0,Calm,Calm,-,N/A,,Clear,0,2013-10-01 03:35:00
11:55 PM,55.4,55.4,100,30.05,10.0,Calm,Calm,-,N/A,,Clear,0,2013-10-01 03:55:00